Location: Cedar Brake
(32.2526°N, 97.8459°W)
Time: 08:50:53
(UTC+00:00)

ADEOS - Pass Details

Date: 22 April 2026
Orbit: 789 x 791 km, 98.8° (Epoch: 15 May)

Event Time Altitude Azimuth Distance (km) Brightness Sun altitude
Exits shadow 03:19:19 64° 202° (SSW) 871 3.6 -26.4°
Maximum altitude 03:19:59 75° 257° (WSW) 821 3.6 -26.5°
Drops below altitude 10° 03:25:12 10° 343° (NNW) 2,360 6.7 -27.4°
Sets 03:27:32 0° 345° (NNW) 3,292 7.5 -27.8°
